Showing default

NORSAT 2, 42828

Orbit data source: Space-Track

NORSAT 2, 42828 is a payload satellite owned by Statsat (NO) in SSO that was launched on Fri, 14 Jul 2017 UTC via a SOYUZ-2-1A launch vehicle from the Tyuratam Missile And Space Complex (TTMTR). Payload-class satellites include a variety of spacecraft equipped with specific instruments for various scientific and technological missions. These include communications satellites like Starlink; space stations such as the ISS; scientific satellites like the Hubble; Earth observation satellites from companies like Planet Labs, Umbra, and HawkEye 360; GPS; miniature CubeSats for education and research; and military/defense satellites.

Loading next visibility...
Identifier
42828, 2017-042D
Orbit
SSO
Country
Flag of NONO / NOR
Related business
Manufacturer
UTIAS-SFL
Mission
Operational Commercial Communications
Bus & Motor
GNB, Unknown motor
Mass
30 kg wet, 30 kg dry
Launch date (UTC)
2017-07-14 (9 years ago)
Launch vehicle
SOYUZ-2-1A
Launch site
Tyuratam Missile And Space Complex (TTMTR)
Object type
Payload
Rocket body
Debris
Shape & HBR
Box + 2 Pan + 4 Ant, 1.2 m
Radar Cross Section
0.202 m², Medium (>0.1 m² and < 1m²)

Expand to show TLE details & history
Last TLE update: 8 hours ago

TLE from 8 hours ago
0 NORSAT 2
1 42828U 17042D   26237.23303573  .00010676  00000-0  45461-3 0  9997
2 42828  97.4083  49.6618 0009790 161.0556 199.1047 15.23115579498247
Epoch: 2026-08-25T05:35Z
TLE epoch observation values (Epoch: 2026-08-25T05:35:34.287Z)
Latitude
0.00001°
Longitude
-7.73439°
Altitude
505.906 km
Speed
7.608 km/s
True Right ascension
03h 18m 38s
True Declination
0° 00' 00"
Sunlit
Object was in daylight at epoch
Visualization orbit readout
Latitude
Unknown
Longitude
Unknown
Altitude
Unknown
Speed
Unknown
Apparent Right ascension
Unknown
Apparent Declination
Unknown
Sunlit
N/A
Visualization observer readout
Local Sidereal Time
05:19:29
Azimuth
Unknown
Elevation
Unknown
Doppler factor
Unknown
Orbital elements
Apogee altitude
500.139 km
Perigee altitude
486.684 km
Semi-major axis
6,871.549 km
Eccentricity
0.00098
Inclination
97.4083°
RAAN
49.6618°
Arg. of periapsis
161.0556°
True anomaly
199.06802°
Mean anomaly
199.1047°
Eccentric anomaly
199.08636°
Mean motion
3.81032 °/min
Orbital period
94.48 mins
BSTAR
0.00045461
Loading maneuver chart data...
Computing Atmospheric mass density...
Loading historical data...
Loading historical data...
Loading historical data...
Loading historical data...
Loading historical data...
Loading historical data...
Loading historical data...

Documentation

Showing up to 5 results
|